Location: Cisewo
(53.3833°N, 14.9000°E)
Time: 11:36:50
(UTC+00:00)

Cosmos 2237 Rocket - Pass Details

Date: 18 April 2021
Orbit: 836 x 849 km, 71.0° (Epoch: 14 May)

Event Time Altitude Azimuth Distance (km) Brightness Sun altitude
Rises 21:17:22 0° 320° (NW) 3,406 6.7 -21.9°
Reaches altitude 10° 21:20:28 10° 303° (WNW) 2,463 5.4 -22.1°
Maximum altitude 21:24:19 19° 260° (W) 1,889 4.2 -22.3°
Enters shadow 21:27:13 13° 224° (SW) 2,225 4.2 -22.5°
